Time,TemperatureF,DewpointF,PressureIn,WindDirection,WindDirectionDegrees,WindSpeedMPH,WindSpeedGustMPH,Humidity,HourlyPrecipIn,Conditions,Clouds,dailyrainin,SoftwareType,DateUTC
2013-11-19 00:04:00,53.1,45.0,30.01,WSW,247,0.0,6.0,74,0.00,,CLR,0.00,VWS V14.01,2013-11-19 08:04:00,
2013-11-19 00:09:00,53.0,45.0,30.01,WSW,247,0.0,6.0,74,0.00,,CLR,0.00,VWS V14.01,2013-11-19 08:09:00,
2013-11-19 00:14:00,52.8,44.8,30.01,WSW,247,0.0,2.0,74,0.00,,CLR,0.00,VWS V14.01,2013-11-19 08:14:00,
2013-11-19 00:19:00,52.4,44.7,30.01,WSW,247,0.0,2.0,75,0.00,,CLR,0.00,VWS V14.01,2013-11-19 08:19:00,
2013-11-19 00:24:00,52.2,44.9,30.01,WSW,247,0.0,5.0,76,0.00,,CLR,0.00,VWS V14.01,2013-11-19 08:24:00,
2013-11-19 00:29:00,52.0,44.7,30.01,WSW,247,0.0,5.0,76,0.00,,CLR,0.00,VWS V14.01,2013-11-19 08:29:00,
2013-11-19 00:34:00,51.8,44.5,30.02,WSW,247,0.0,0.0,76,0.00,,CLR,0.00,VWS V14.01,2013-11-19 08:34:00,
2013-11-19 00:39:00,51.6,44.6,30.01,WSW,247,0.0,0.0,77,0.00,,CLR,0.00,VWS V14.01,2013-11-19 08:39:00,
2013-11-19 00:44:00,51.3,44.3,30.01,WSW,247,1.0,2.0,77,0.00,,CLR,0.00,VWS V14.01,2013-11-19 08:44:00,
2013-11-19 00:49:00,51.0,44.4,30.00,WSW,247,0.0,2.0,78,0.00,,CLR,0.00,VWS V14.01,2013-11-19 08:49:00,
2013-11-19 00:55:00,50.7,44.1,30.00,WSW,247,0.0,1.0,78,0.00,,CLR,0.00,VWS V14.01,2013-11-19 08:55:00,
2013-11-19 01:00:00,50.6,44.0,30.00,WSW,247,0.0,0.0,78,0.00,,CLR,0.00,VWS V14.01,2013-11-19 09:00:00,
2013-11-19 01:05:00,50.5,44.2,30.00,WSW,247,2.0,2.0,79,0.00,,CLR,0.00,VWS V14.01,2013-11-19 09:05:00,
2013-11-19 01:10:00,50.4,44.1,30.00,WSW,238,8.0,8.0,79,0.00,,CLR,0.00,VWS V14.01,2013-11-19 09:10:00,
2013-11-19 01:15:00,51.2,44.9,29.99,WSW,242,3.0,8.0,79,0.00,,CLR,0.00,VWS V14.01,2013-11-19 09:15:00,
2013-11-19 01:20:00,51.8,45.2,29.99,SW,221,4.0,8.0,78,0.00,,CLR,0.00,VWS V14.01,2013-11-19 09:20:00,
2013-11-19 01:25:00,52.4,45.1,29.99,SSW,212,8.0,11.0,76,0.00,,CLR,0.00,VWS V14.01,2013-11-19 09:25:00,
2013-11-19 01:30:00,52.8,45.1,29.99,WSW,238,8.0,8.0,75,0.00,,CLR,0.00,VWS V14.01,2013-11-19 09:30:00,
2013-11-19 01:35:00,53.4,45.0,29.99,SSW,212,5.0,20.0,73,0.00,,CLR,0.00,VWS V14.01,2013-11-19 09:35:00,
2013-11-19 01:40:00,53.6,45.2,29.98,SSW,207,9.0,13.0,73,0.00,,CLR,0.00,VWS V14.01,2013-11-19 09:40:00,
2013-11-19 01:45:00,53.6,45.5,29.98,WSW,252,8.0,13.0,74,0.00,,CLR,0.00,VWS V14.01,2013-11-19 09:45:00,
2013-11-19 01:50:00,53.5,45.4,29.97,WSW,244,4.0,6.0,74,0.00,,CLR,0.00,VWS V14.01,2013-11-19 09:50:00,
2013-11-19 01:55:00,53.4,45.3,29.97,SW,231,3.0,7.0,74,0.00,,CLR,0.00,VWS V14.01,2013-11-19 09:55:00,
2013-11-19 02:00:00,53.3,45.2,29.97,SW,227,5.0,6.0,74,0.00,,CLR,0.00,VWS V14.01,2013-11-19 10:00:00,
2013-11-19 02:05:00,53.2,45.1,29.97,WSW,245,3.0,8.0,74,0.00,,CLR,0.00,VWS V14.01,2013-11-19 10:05:00,
2013-11-19 02:11:00,53.1,45.0,29.97,SW,222,3.0,11.0,74,0.00,,CLR,0.00,VWS V14.01,2013-11-19 10:11:00,
2013-11-19 02:16:00,53.1,45.4,29.98,West,277,5.0,13.0,75,0.00,,CLR,0.00,VWS V14.01,2013-11-19 10:16:00,
2013-11-19 02:21:00,53.0,45.3,29.98,WSW,250,5.0,9.0,75,0.00,,CLR,0.00,VWS V14.01,2013-11-19 10:21:00,
2013-11-19 02:26:00,52.8,45.5,29.98,West,266,6.0,12.0,76,0.00,,CLR,0.00,VWS V14.01,2013-11-19 10:26:00,
2013-11-19 02:31:00,52.7,45.4,29.97,WSW,250,6.0,11.0,76,0.00,,CLR,0.00,VWS V14.01,2013-11-19 10:31:00,
2013-11-19 02:36:00,52.7,45.4,29.96,WSW,252,5.0,15.0,76,0.00,,CLR,0.00,VWS V14.01,2013-11-19 10:36:00,
2013-11-19 02:41:00,52.7,45.4,29.97,WSW,246,6.0,14.0,76,0.00,,CLR,0.00,VWS V14.01,2013-11-19 10:41:00,
2013-11-19 02:46:00,52.7,45.4,29.97,WSW,243,11.0,15.0,76,0.00,,CLR,0.00,VWS V14.01,2013-11-19 10:46:00,
2013-11-19 02:51:00,52.7,45.4,29.96,WNW,283,8.0,8.0,76,0.00,,CLR,0.00,VWS V14.01,2013-11-19 10:51:00,
2013-11-19 02:56:00,52.6,45.3,29.97,NW,309,4.0,11.0,76,0.00,,CLR,0.00,VWS V14.01,2013-11-19 10:56:00,
2013-11-19 03:01:00,52.5,45.5,29.98,WNW,290,0.0,7.0,77,0.00,,CLR,0.00,VWS V14.01,2013-11-19 11:01:00,
2013-11-19 03:06:00,52.4,45.4,29.96,SSW,210,4.0,7.0,77,0.00,,CLR,0.00,VWS V14.01,2013-11-19 11:06:00,
2013-11-19 03:11:00,52.3,45.3,29.96,WSW,242,3.0,11.0,77,0.00,,CLR,0.00,VWS V14.01,2013-11-19 11:11:00,
2013-11-19 03:16:00,52.3,45.3,29.95,SW,220,6.0,15.0,77,0.00,,CLR,0.00,VWS V14.01,2013-11-19 11:16:00,
2013-11-19 03:21:00,52.3,45.3,29.94,SW,216,8.0,14.0,77,0.00,,CLR,0.00,VWS V14.01,2013-11-19 11:21:00,
2013-11-19 03:26:00,52.3,45.3,29.95,WSW,238,19.0,21.0,77,0.00,,CLR,0.00,VWS V14.01,2013-11-19 11:26:00,
2013-11-19 03:31:00,52.3,45.3,29.95,SW,221,7.0,20.0,77,0.00,,CLR,0.00,VWS V14.01,2013-11-19 11:31:00,
2013-11-19 03:37:00,52.4,45.1,29.95,SW,223,10.0,21.0,76,0.00,,CLR,0.00,VWS V14.01,2013-11-19 11:37:00,
2013-11-19 03:42:00,52.5,45.2,29.95,SSW,213,14.0,22.0,76,0.00,,CLR,0.00,VWS V14.01,2013-11-19 11:42:00,
2013-11-19 03:47:00,52.6,45.3,29.95,SW,226,8.0,22.0,76,0.00,,CLR,0.00,VWS V14.01,2013-11-19 11:47:00,
2013-11-19 03:52:00,52.5,44.8,29.95,SSW,202,3.0,12.0,75,0.00,,CLR,0.00,VWS V14.01,2013-11-19 11:52:00,
2013-11-19 03:57:00,52.5,44.8,29.96,SSW,212,7.0,18.0,75,0.00,,CLR,0.00,VWS V14.01,2013-11-19 11:57:00,
2013-11-19 04:02:00,52.4,44.7,29.96,SW,222,4.0,12.0,75,0.00,,CLR,0.00,VWS V14.01,2013-11-19 12:02:00,
2013-11-19 04:07:00,52.4,44.7,29.96,West,269,11.0,17.0,75,0.00,,CLR,0.00,VWS V14.01,2013-11-19 12:07:00,
2013-11-19 04:12:00,52.4,44.7,29.97,WSW,244,3.0,7.0,75,0.00,,CLR,0.00,VWS V14.01,2013-11-19 12:12:00,
2013-11-19 04:17:00,52.3,44.3,29.96,SSW,210,7.0,14.0,74,0.00,,CLR,0.00,VWS V14.01,2013-11-19 12:17:00,
2013-11-19 04:22:00,52.3,44.3,29.96,West,271,6.0,10.0,74,0.00,,CLR,0.00,VWS V14.01,2013-11-19 12:22:00,
2013-11-19 04:27:00,52.2,44.2,29.96,WSW,256,8.0,18.0,74,0.00,,CLR,0.00,VWS V14.01,2013-11-19 12:27:00,
2013-11-19 04:32:00,52.3,44.3,29.96,WSW,243,13.0,16.0,74,0.00,,CLR,0.00,VWS V14.01,2013-11-19 12:32:00,
2013-11-19 04:37:00,52.3,43.9,29.95,SW,227,4.0,16.0,73,0.00,,CLR,0.00,VWS V14.01,2013-11-19 12:37:00,
2013-11-19 04:42:00,52.3,43.9,29.95,SW,215,4.0,11.0,73,0.00,,CLR,0.00,VWS V14.01,2013-11-19 12:42:00,
2013-11-19 04:47:00,52.1,43.7,29.94,WSW,243,1.0,11.0,73,0.00,,CLR,0.00,VWS V14.01,2013-11-19 12:47:00,
2013-11-19 04:52:00,52.0,43.6,29.94,SW,228,5.0,12.0,73,0.00,,CLR,0.00,VWS V14.01,2013-11-19 12:52:00,
2013-11-19 04:57:00,52.0,43.6,29.94,WSW,239,4.0,16.0,73,0.00,,CLR,0.00,VWS V14.01,2013-11-19 12:57:00,
2013-11-19 05:03:00,52.1,43.4,29.94,WSW,249,7.0,14.0,72,0.00,,CLR,0.00,VWS V14.01,2013-11-19 13:03:00,
2013-11-19 05:08:00,52.1,43.0,29.94,SW,234,5.0,15.0,71,0.00,,CLR,0.00,VWS V14.01,2013-11-19 13:08:00,
2013-11-19 05:13:00,52.3,42.5,29.93,WSW,237,7.0,12.0,69,0.00,,CLR,0.00,VWS V14.01,2013-11-19 13:13:00,
2013-11-19 05:18:00,52.6,42.3,29.94,SW,234,2.0,12.0,68,0.00,,CLR,0.00,VWS V14.01,2013-11-19 13:18:00,
2013-11-19 05:23:00,52.7,42.5,29.94,WSW,242,4.0,11.0,68,0.00,,CLR,0.00,VWS V14.01,2013-11-19 13:23:00,
2013-11-19 05:28:00,52.8,42.5,29.93,SW,230,2.0,11.0,68,0.00,,CLR,0.00,VWS V14.01,2013-11-19 13:28:00,
2013-11-19 05:33:00,52.7,42.8,29.93,WSW,239,13.0,14.0,69,0.00,,CLR,0.00,VWS V14.01,2013-11-19 13:33:00,
2013-11-19 05:38:00,52.7,42.8,29.93,SW,233,13.0,14.0,69,0.00,,CLR,0.00,VWS V14.01,2013-11-19 13:38:00,
2013-11-19 05:43:00,52.8,42.9,29.93,WSW,239,8.0,15.0,69,0.00,,CLR,0.00,VWS V14.01,2013-11-19 13:43:00,
2013-11-19 05:48:00,52.7,42.8,29.94,SW,236,6.0,18.0,69,0.00,,CLR,0.00,VWS V14.01,2013-11-19 13:48:00,
2013-11-19 05:53:00,52.8,42.2,29.93,SW,235,3.0,8.0,67,0.00,,CLR,0.00,VWS V14.01,2013-11-19 13:53:00,
2013-11-19 05:58:00,53.0,42.7,29.94,WSW,245,5.0,16.0,68,0.00,,CLR,0.00,VWS V14.01,2013-11-19 13:58:00,
2013-11-19 06:03:00,52.9,42.6,29.94,SW,231,6.0,11.0,68,0.00,,CLR,0.00,VWS V14.01,2013-11-19 14:03:00,
2013-11-19 06:08:00,52.8,42.5,29.93,SW,232,3.0,12.0,68,0.00,,CLR,0.00,VWS V14.01,2013-11-19 14:08:00,
2013-11-19 06:13:00,52.8,42.2,29.94,SW,219,2.0,6.0,67,0.00,,CLR,0.00,VWS V14.01,2013-11-19 14:13:00,
2013-11-19 06:19:00,52.8,41.8,29.94,WSW,243,8.0,8.0,66,0.00,,CLR,0.00,VWS V14.01,2013-11-19 14:19:00,
2013-11-19 06:24:00,53.0,42.3,29.93,SW,233,2.0,11.0,67,0.00,,CLR,0.00,VWS V14.01,2013-11-19 14:24:00,
2013-11-19 06:29:00,52.8,42.5,29.94,WSW,244,6.0,17.0,68,0.00,,CLR,0.00,VWS V14.01,2013-11-19 14:29:00,
2013-11-19 06:34:00,52.8,42.5,29.94,WSW,248,11.0,12.0,68,0.00,,CLR,0.00,VWS V14.01,2013-11-19 14:34:00,
2013-11-19 06:39:00,52.4,42.9,29.94,SW,229,6.0,13.0,70,0.00,,CLR,0.00,VWS V14.01,2013-11-19 14:39:00,
2013-11-19 06:44:00,52.2,42.7,29.94,SW,227,4.0,12.0,70,0.00,,CLR,0.00,VWS V14.01,2013-11-19 14:44:00,
2013-11-19 06:49:00,52.1,42.6,29.95,SW,216,2.0,13.0,70,0.00,,CLR,0.00,VWS V14.01,2013-11-19 14:49:00,
2013-11-19 06:54:00,52.1,42.6,29.95,SW,234,3.0,8.0,70,0.00,,CLR,0.00,VWS V14.01,2013-11-19 14:54:00,
2013-11-19 06:59:00,52.3,42.5,29.95,SW,236,0.0,8.0,69,0.00,,CLR,0.00,VWS V14.01,2013-11-19 14:59:00,
2013-11-19 07:04:00,52.3,42.1,29.96,SW,236,1.0,3.0,68,0.00,,CLR,0.00,VWS V14.01,2013-11-19 15:04:00,
2013-11-19 07:09:00,52.6,42.0,29.96,WSW,237,1.0,3.0,67,0.00,,CLR,0.00,VWS V14.01,2013-11-19 15:09:00,
2013-11-19 07:14:00,53.0,42.0,29.96,WNW,291,4.0,14.0,66,0.00,,CLR,0.00,VWS V14.01,2013-11-19 15:14:00,
2013-11-19 07:19:00,53.8,41.1,29.95,WSW,248,5.0,14.0,62,0.00,,CLR,0.00,VWS V14.01,2013-11-19 15:19:00,
2013-11-19 07:24:00,54.2,41.5,29.95,WSW,240,14.0,15.0,62,0.00,,CLR,0.00,VWS V14.01,2013-11-19 15:24:00,
2013-11-19 07:29:00,55.0,41.8,29.95,West,269,2.0,15.0,61,0.00,,CLR,0.00,VWS V14.01,2013-11-19 15:29:00,
2013-11-19 07:34:00,55.1,41.5,29.95,WSW,248,6.0,12.0,60,0.00,,CLR,0.00,VWS V14.01,2013-11-19 15:34:00,
2013-11-19 07:39:00,55.6,41.1,29.96,WSW,250,4.0,17.0,58,0.00,,CLR,0.00,VWS V14.01,2013-11-19 15:39:00,
2013-11-19 07:45:00,55.8,41.3,29.95,SW,221,9.0,12.0,58,0.00,,CLR,0.00,VWS V14.01,2013-11-19 15:45:00,
2013-11-19 07:50:00,56.1,41.5,29.96,WSW,250,11.0,17.0,58,0.00,,CLR,0.00,VWS V14.01,2013-11-19 15:50:00,
2013-11-19 07:55:00,56.1,41.5,29.96,WSW,244,11.0,16.0,58,0.00,,CLR,0.00,VWS V14.01,2013-11-19 15:55:00,
2013-11-19 08:00:00,56.4,40.9,29.95,WSW,248,11.0,16.0,56,0.00,,CLR,0.00,VWS V14.01,2013-11-19 16:00:00,
2013-11-19 08:05:00,56.5,41.0,29.95,SW,235,16.0,21.0,56,0.00,,CLR,0.00,VWS V14.01,2013-11-19 16:05:00,
2013-11-19 08:10:00,56.7,41.2,29.95,West,269,4.0,7.0,56,0.00,,CLR,0.00,VWS V14.01,2013-11-19 16:10:00,
2013-11-19 08:15:00,56.9,40.9,29.94,SW,233,7.0,13.0,55,0.00,,CLR,0.00,VWS V14.01,2013-11-19 16:15:00,
2013-11-19 08:20:00,57.4,41.4,29.95,West,273,7.0,8.0,55,0.00,,CLR,0.00,VWS V14.01,2013-11-19 16:20:00,
2013-11-19 08:25:00,57.4,40.9,29.95,SW,230,4.0,21.0,54,0.00,,CLR,0.00,VWS V14.01,2013-11-19 16:25:00,
2013-11-19 08:30:00,57.4,41.4,29.95,WSW,244,4.0,6.0,55,0.00,,CLR,0.00,VWS V14.01,2013-11-19 16:30:00,
2013-11-19 08:35:00,57.4,41.4,29.95,WSW,238,10.0,12.0,55,0.00,,CLR,0.00,VWS V14.01,2013-11-19 16:35:00,
2013-11-19 08:40:00,57.7,42.1,29.95,WSW,240,5.0,7.0,56,0.00,,CLR,0.00,VWS V14.01,2013-11-19 16:40:00,
2013-11-19 08:45:00,57.7,41.2,29.95,SW,234,7.0,8.0,54,0.00,,CLR,0.00,VWS V14.01,2013-11-19 16:45:00,
2013-11-19 08:50:00,57.9,41.4,29.95,WSW,245,4.0,10.0,54,0.00,,CLR,0.00,VWS V14.01,2013-11-19 16:50:00,
2013-11-19 08:55:00,58.0,41.5,29.95,SW,229,14.0,17.0,54,0.00,,CLR,0.00,VWS V14.01,2013-11-19 16:55:00,
2013-11-19 09:00:00,58.0,41.9,29.95,SW,223,17.0,20.0,55,0.00,,CLR,0.00,VWS V14.01,2013-11-19 17:00:00,
2013-11-19 09:05:00,58.0,41.9,29.95,SW,234,13.0,20.0,55,0.00,,CLR,0.00,VWS V14.01,2013-11-19 17:05:00,
2013-11-19 09:10:00,58.1,41.6,29.94,West,269,8.0,11.0,54,0.00,,CLR,0.00,VWS V14.01,2013-11-19 17:10:00,
2013-11-19 09:16:00,58.2,41.2,29.95,WSW,252,2.0,11.0,53,0.00,,CLR,0.00,VWS V14.01,2013-11-19 17:16:00,
2013-11-19 09:21:00,58.7,40.6,29.94,SW,227,2.0,3.0,51,0.00,,CLR,0.00,VWS V14.01,2013-11-19 17:21:00,
2013-11-19 09:26:00,58.9,40.8,29.94,SSW,205,3.0,7.0,51,0.00,,CLR,0.00,VWS V14.01,2013-11-19 17:26:00,
2013-11-19 09:31:00,59.3,40.2,29.95,West,269,0.0,2.0,49,0.00,,CLR,0.00,VWS V14.01,2013-11-19 17:31:00,
2013-11-19 09:35:00,59.5,40.9,29.94,West,269,1.0,3.0,50,0.00,,CLR,0.00,VWS V14.01,2013-11-19 17:35:00,
2013-11-19 09:40:00,59.9,40.7,29.95,WSW,249,5.0,5.0,49,0.00,,CLR,0.00,VWS V14.01,2013-11-19 17:40:00,
2013-11-19 09:45:00,60.1,40.9,29.95,WSW,248,2.0,5.0,49,0.00,,CLR,0.00,VWS V14.01,2013-11-19 17:45:00,
2013-11-19 09:50:00,60.4,40.6,29.95,SW,236,1.0,5.0,48,0.00,,CLR,0.00,VWS V14.01,2013-11-19 17:50:00,
2013-11-19 09:55:00,60.4,40.1,29.95,WSW,256,4.0,6.0,47,0.00,,CLR,0.00,VWS V14.01,2013-11-19 17:55:00,
2013-11-19 10:00:00,60.5,40.2,29.94,WSW,256,0.0,0.0,47,0.00,,CLR,0.00,VWS V14.01,2013-11-19 18:00:00,
2013-11-19 10:05:00,60.6,39.7,29.95,WSW,256,0.0,0.0,46,0.00,,CLR,0.00,VWS V14.01,2013-11-19 18:05:00,
2013-11-19 10:10:00,60.7,40.4,29.95,WSW,250,0.0,2.0,47,0.00,,CLR,0.00,VWS V14.01,2013-11-19 18:10:00,
2013-11-19 10:15:00,60.7,39.8,29.95,WSW,254,4.0,6.0,46,0.00,,CLR,0.00,VWS V14.01,2013-11-19 18:15:00,
2013-11-19 10:20:00,60.8,40.5,29.95,WSW,254,2.0,5.0,47,0.00,,CLR,0.00,VWS V14.01,2013-11-19 18:20:00,
2013-11-19 10:25:00,60.7,41.5,29.95,West,261,2.0,8.0,49,0.00,,CLR,0.00,VWS V14.01,2013-11-19 18:25:00,
2013-11-19 10:31:00,60.5,40.7,29.95,WSW,258,0.0,4.0,48,0.00,,CLR,0.00,VWS V14.01,2013-11-19 18:31:00,
2013-11-19 10:36:00,60.5,40.2,29.95,West,269,6.0,9.0,47,0.00,,CLR,0.00,VWS V14.01,2013-11-19 18:36:00,
2013-11-19 10:41:00,60.7,40.4,29.94,WSW,238,1.0,5.0,47,0.00,,CLR,0.00,VWS V14.01,2013-11-19 18:41:00,
2013-11-19 10:46:00,60.8,40.5,29.94,WSW,246,4.0,6.0,47,0.00,,CLR,0.00,VWS V14.01,2013-11-19 18:46:00,
2013-11-19 10:51:00,61.3,39.8,29.94,WSW,257,5.0,5.0,45,0.00,,CLR,0.00,VWS V14.01,2013-11-19 18:51:00,
2013-11-19 10:56:00,61.3,39.8,29.93,WSW,239,4.0,7.0,45,0.00,,CLR,0.00,VWS V14.01,2013-11-19 18:56:00,
2013-11-19 11:01:00,61.6,40.1,29.93,SW,232,6.0,6.0,45,0.00,,CLR,0.00,VWS V14.01,2013-11-19 19:01:00,
2013-11-19 11:06:00,62.0,40.4,29.93,WSW,256,6.0,6.0,45,0.00,,CLR,0.00,VWS V14.01,2013-11-19 19:06:00,
2013-11-19 11:11:00,62.8,40.0,29.92,West,266,5.0,10.0,43,0.00,,CLR,0.00,VWS V14.01,2013-11-19 19:11:00,
2013-11-19 11:16:00,62.9,40.1,29.92,SW,225,5.0,10.0,43,0.00,,CLR,0.00,VWS V14.01,2013-11-19 19:16:00,
2013-11-19 11:21:00,63.3,39.8,29.92,SW,223,7.0,11.0,42,0.00,,CLR,0.00,VWS V14.01,2013-11-19 19:21:00,
2013-11-19 11:26:00,63.2,39.8,29.91,SW,235,11.0,11.0,42,0.00,,CLR,0.00,VWS V14.01,2013-11-19 19:26:00,
2013-11-19 11:31:00,63.1,40.3,29.91,West,269,5.0,12.0,43,0.00,,CLR,0.00,VWS V14.01,2013-11-19 19:31:00,
2013-11-19 11:36:00,63.1,40.3,29.92,WSW,257,5.0,12.0,43,0.00,,CLR,0.00,VWS V14.01,2013-11-19 19:36:00,
2013-11-19 11:41:00,63.3,39.2,29.91,West,280,9.0,10.0,41,0.00,,CLR,0.00,VWS V14.01,2013-11-19 19:41:00,
2013-11-19 11:46:00,63.5,38.8,29.91,WSW,239,6.0,11.0,40,0.00,,CLR,0.00,VWS V14.01,2013-11-19 19:46:00,
2013-11-19 11:52:00,63.9,38.5,29.91,WSW,254,4.0,8.0,39,0.00,,CLR,0.00,VWS V14.01,2013-11-19 19:52:00,
2013-11-19 11:57:00,64.0,38.6,29.91,West,267,4.0,14.0,39,0.00,,CLR,0.00,VWS V14.01,2013-11-19 19:57:00,
2013-11-19 12:02:00,64.2,38.8,29.91,West,268,2.0,9.0,39,0.00,,CLR,0.00,VWS V14.01,2013-11-19 20:02:00,
2013-11-19 12:07:00,64.1,38.0,29.91,WSW,250,2.0,11.0,38,0.00,,CLR,0.00,VWS V14.01,2013-11-19 20:07:00,
2013-11-19 12:12:00,64.0,39.8,29.91,SW,233,3.0,11.0,41,0.00,,CLR,0.00,VWS V14.01,2013-11-19 20:12:00,
2013-11-19 12:17:00,64.0,40.5,29.90,West,280,8.0,11.0,42,0.00,,CLR,0.00,VWS V14.01,2013-11-19 20:17:00,
2013-11-19 12:22:00,63.8,40.3,29.90,West,271,7.0,15.0,42,0.00,,CLR,0.00,VWS V14.01,2013-11-19 20:22:00,
2013-11-19 12:27:00,63.9,39.1,29.90,WNW,294,6.0,15.0,40,0.00,,CLR,0.00,VWS V14.01,2013-11-19 20:27:00,
2013-11-19 12:32:00,64.2,38.1,29.90,WSW,254,7.0,12.0,38,0.00,,CLR,0.00,VWS V14.01,2013-11-19 20:32:00,
2013-11-19 12:37:00,64.3,39.5,29.90,WSW,244,10.0,12.0,40,0.00,,CLR,0.00,VWS V14.01,2013-11-19 20:37:00,
2013-11-19 12:42:00,64.8,40.6,29.90,SW,234,5.0,8.0,41,0.00,,CLR,0.00,VWS V14.01,2013-11-19 20:42:00,
2013-11-19 12:47:00,64.8,39.3,29.89,WSW,254,3.0,14.0,39,0.00,,CLR,0.00,VWS V14.01,2013-11-19 20:47:00,
2013-11-19 12:52:00,64.9,38.7,29.89,SW,229,6.0,6.0,38,0.00,,CLR,0.00,VWS V14.01,2013-11-19 20:52:00,
2013-11-19 12:57:00,65.1,40.8,29.88,WSW,245,4.0,6.0,41,0.00,,CLR,0.00,VWS V14.01,2013-11-19 20:57:00,
2013-11-19 13:02:00,65.2,40.9,29.88,WSW,248,5.0,14.0,41,0.00,,CLR,0.00,VWS V14.01,2013-11-19 21:02:00,
2013-11-19 13:07:00,65.1,39.5,29.88,WSW,246,6.0,14.0,39,0.00,,CLR,0.00,VWS V14.01,2013-11-19 21:07:00,
2013-11-19 13:12:00,65.1,38.9,29.88,SW,233,7.0,11.0,38,0.00,,CLR,0.00,VWS V14.01,2013-11-19 21:12:00,
2013-11-19 13:18:00,65.1,39.5,29.88,West,263,5.0,11.0,39,0.00,,CLR,0.00,VWS V14.01,2013-11-19 21:18:00,
2013-11-19 13:23:00,64.9,40.0,29.87,West,263,2.0,8.0,40,0.00,,CLR,0.00,VWS V14.01,2013-11-19 21:23:00,
2013-11-19 13:28:00,64.9,40.7,29.87,WSW,254,7.0,8.0,41,0.00,,CLR,0.00,VWS V14.01,2013-11-19 21:28:00,
2013-11-19 13:33:00,64.8,39.3,29.87,WSW,250,1.0,11.0,39,0.00,,CLR,0.00,VWS V14.01,2013-11-19 21:33:00,
2013-11-19 13:38:00,64.9,39.4,29.87,WSW,250,2.0,11.0,39,0.00,,CLR,0.00,VWS V14.01,2013-11-19 21:38:00,
2013-11-19 13:43:00,64.9,40.0,29.86,WSW,244,3.0,5.0,40,0.00,,CLR,0.00,VWS V14.01,2013-11-19 21:43:00,
2013-11-19 13:48:00,64.8,39.3,29.86,WSW,240,3.0,5.0,39,0.00,,CLR,0.00,VWS V14.01,2013-11-19 21:48:00,
2013-11-19 13:53:00,64.9,39.4,29.86,West,279,2.0,11.0,39,0.00,,CLR,0.00,VWS V14.01,2013-11-19 21:53:00,
2013-11-19 13:58:00,65.2,39.6,29.86,WSW,239,3.0,11.0,39,0.00,,CLR,0.00,VWS V14.01,2013-11-19 21:58:00,
2013-11-19 14:03:00,65.4,39.8,29.86,WSW,252,6.0,8.0,39,0.00,,CLR,0.00,VWS V14.01,2013-11-19 22:03:00,
2013-11-19 14:08:00,65.4,38.5,29.86,West,274,4.0,9.0,37,0.00,,CLR,0.00,VWS V14.01,2013-11-19 22:08:00,
2013-11-19 14:13:00,65.4,39.2,29.86,WNW,284,4.0,9.0,38,0.00,,CLR,0.00,VWS V14.01,2013-11-19 22:13:00,
2013-11-19 14:18:00,65.4,40.5,29.86,SW,236,2.0,9.0,40,0.00,,CLR,0.00,VWS V14.01,2013-11-19 22:18:00,
2013-11-19 14:23:00,65.5,40.6,29.86,WSW,244,2.0,6.0,40,0.00,,CLR,0.00,VWS V14.01,2013-11-19 22:23:00,
2013-11-19 14:28:00,65.5,41.8,29.85,WSW,254,0.0,6.0,42,0.00,,CLR,0.00,VWS V14.01,2013-11-19 22:28:00,
2013-11-19 14:33:00,65.5,41.8,29.85,WSW,252,3.0,5.0,42,0.00,,CLR,0.00,VWS V14.01,2013-11-19 22:33:00,
2013-11-19 14:38:00,65.4,39.2,29.84,WNW,294,5.0,11.0,38,0.00,,CLR,0.00,VWS V14.01,2013-11-19 22:38:00,
2013-11-19 14:43:00,65.2,39.6,29.84,West,273,9.0,13.0,39,0.00,,CLR,0.00,VWS V14.01,2013-11-19 22:43:00,
2013-11-19 14:48:00,64.9,39.4,29.84,WSW,240,7.0,13.0,39,0.00,,CLR,0.00,VWS V14.01,2013-11-19 22:48:00,
2013-11-19 14:54:00,64.7,39.2,29.84,WNW,296,12.0,12.0,39,0.00,,CLR,0.00,VWS V14.01,2013-11-19 22:54:00,
2013-11-19 14:59:00,64.6,39.8,29.85,West,275,4.0,12.0,40,0.00,,CLR,0.00,VWS V14.01,2013-11-19 22:59:00,
2013-11-19 15:04:00,64.9,40.0,29.85,WNW,287,5.0,13.0,40,0.00,,CLR,0.00,VWS V14.01,2013-11-19 23:04:00,
2013-11-19 15:09:00,65.2,39.6,29.85,WNW,292,14.0,14.0,39,0.00,,CLR,0.00,VWS V14.01,2013-11-19 23:09:00,
2013-11-19 15:14:00,65.2,39.0,29.85,West,268,4.0,14.0,38,0.00,,CLR,0.00,VWS V14.01,2013-11-19 23:14:00,
2013-11-19 15:19:00,65.3,41.6,29.85,SW,234,6.0,14.0,42,0.00,,CLR,0.00,VWS V14.01,2013-11-19 23:19:00,
2013-11-19 15:24:00,64.9,41.3,29.85,WSW,240,8.0,11.0,42,0.00,,CLR,0.00,VWS V14.01,2013-11-19 23:24:00,
2013-11-19 15:29:00,64.5,40.9,29.85,WSW,257,5.0,11.0,42,0.00,,CLR,0.00,VWS V14.01,2013-11-19 23:29:00,
2013-11-19 15:34:00,64.1,40.6,29.85,WSW,248,10.0,13.0,42,0.00,,CLR,0.00,VWS V14.01,2013-11-19 23:34:00,
2013-11-19 15:39:00,63.7,40.8,29.85,WSW,240,12.0,17.0,43,0.00,,CLR,0.00,VWS V14.01,2013-11-19 23:39:00,
2013-11-19 15:44:00,63.3,41.6,29.85,SW,225,3.0,13.0,45,0.00,,CLR,0.00,VWS V14.01,2013-11-19 23:44:00,
2013-11-19 15:49:00,63.1,40.9,29.85,West,263,6.0,22.0,44,0.00,,CLR,0.00,VWS V14.01,2013-11-19 23:49:00,
2013-11-19 15:54:00,62.8,41.7,29.85,WSW,250,5.0,17.0,46,0.00,,CLR,0.00,VWS V14.01,2013-11-19 23:54:00,
2013-11-19 15:59:00,62.4,43.0,29.85,West,265,11.0,17.0,49,0.00,,CLR,0.00,VWS V14.01,2013-11-19 23:59:00,
2013-11-19 16:04:00,62.0,43.7,29.85,WSW,248,12.0,19.0,51,0.00,,CLR,0.00,VWS V14.01,2013-11-20 00:04:00,
2013-11-19 16:10:00,61.6,42.8,29.85,SW,223,9.0,19.0,50,0.00,,CLR,0.00,VWS V14.01,2013-11-20 00:10:00,
2013-11-19 16:15:00,61.4,42.6,29.85,SW,229,5.0,13.0,50,0.00,,CLR,0.00,VWS V14.01,2013-11-20 00:15:00,
2013-11-19 16:20:00,61.2,42.4,29.85,West,259,2.0,3.0,50,0.00,,CLR,0.00,VWS V14.01,2013-11-20 00:20:00,
2013-11-19 16:25:00,61.0,42.2,29.86,WSW,257,0.0,5.0,50,0.00,,CLR,0.00,VWS V14.01,2013-11-20 00:25:00,
2013-11-19 16:30:00,60.8,41.0,29.86,WSW,254,2.0,2.0,48,0.00,,CLR,0.00,VWS V14.01,2013-11-20 00:30:00,
2013-11-19 16:35:00,60.7,41.5,29.86,West,265,0.0,7.0,49,0.00,,CLR,0.00,VWS V14.01,2013-11-20 00:35:00,
2013-11-19 16:40:00,60.5,41.8,29.86,West,265,0.0,1.0,50,0.00,,CLR,0.00,VWS V14.01,2013-11-20 00:40:00,
2013-11-19 16:45:00,60.4,41.7,29.86,West,265,2.0,3.0,50,0.00,,CLR,0.00,VWS V14.01,2013-11-20 00:45:00,
2013-11-19 16:50:00,60.3,42.6,29.87,West,265,0.0,0.0,52,0.00,,CLR,0.00,VWS V14.01,2013-11-20 00:50:00,
2013-11-19 16:55:00,60.0,42.8,29.87,West,265,0.0,0.0,53,0.00,,CLR,0.00,VWS V14.01,2013-11-20 00:55:00,
2013-11-19 17:00:00,59.8,42.7,29.87,West,265,0.0,0.0,53,0.00,,CLR,0.00,VWS V14.01,2013-11-20 01:00:00,
2013-11-19 17:05:00,59.5,42.9,29.87,West,265,0.0,3.0,54,0.00,,CLR,0.00,VWS V14.01,2013-11-20 01:05:00,
2013-11-19 17:10:00,59.2,43.1,29.87,West,265,0.0,0.0,55,0.00,,CLR,0.00,VWS V14.01,2013-11-20 01:10:00,
2013-11-19 17:15:00,59.0,42.9,29.87,West,265,0.0,3.0,55,0.00,,CLR,0.00,VWS V14.01,2013-11-20 01:15:00,
2013-11-19 17:20:00,58.7,43.1,29.86,West,265,0.0,1.0,56,0.00,,CLR,0.00,VWS V14.01,2013-11-20 01:20:00,
2013-11-19 17:25:00,58.5,42.9,29.87,West,265,1.0,3.0,56,0.00,,CLR,0.00,VWS V14.01,2013-11-20 01:25:00,
2013-11-19 17:31:00,58.5,42.9,29.87,West,265,2.0,4.0,56,0.00,,CLR,0.00,VWS V14.01,2013-11-20 01:31:00,
2013-11-19 17:36:00,58.5,42.9,29.87,West,265,0.0,4.0,56,0.00,,CLR,0.00,VWS V14.01,2013-11-20 01:36:00,
2013-11-19 17:41:00,58.3,43.2,29.87,West,265,0.0,0.0,57,0.00,,CLR,0.00,VWS V14.01,2013-11-20 01:41:00,
2013-11-19 17:46:00,58.1,43.0,29.87,West,265,0.0,3.0,57,0.00,,CLR,0.00,VWS V14.01,2013-11-20 01:46:00,
2013-11-19 17:51:00,57.8,42.7,29.87,West,265,0.0,0.0,57,0.00,,CLR,0.00,VWS V14.01,2013-11-20 01:51:00,
2013-11-19 17:56:00,57.6,43.4,29.87,West,265,0.0,5.0,59,0.00,,CLR,0.00,VWS V14.01,2013-11-20 01:56:00,
2013-11-19 18:01:00,57.6,43.4,29.87,West,261,2.0,3.0,59,0.00,,CLR,0.00,VWS V14.01,2013-11-20 02:01:00,
2013-11-19 18:06:00,57.5,43.3,29.87,West,261,0.0,3.0,59,0.00,,CLR,0.00,VWS V14.01,2013-11-20 02:06:00,
2013-11-19 18:11:00,57.5,42.8,29.87,WSW,248,0.0,0.0,58,0.00,,CLR,0.00,VWS V14.01,2013-11-20 02:11:00,
2013-11-19 18:16:00,57.4,43.6,29.87,SW,220,2.0,8.0,60,0.00,,CLR,0.00,VWS V14.01,2013-11-20 02:16:00,
2013-11-19 18:21:00,57.3,44.0,29.86,SW,214,4.0,5.0,61,0.00,,CLR,0.00,VWS V14.01,2013-11-20 02:21:00,
2013-11-19 18:26:00,57.1,44.2,29.86,SW,219,3.0,6.0,62,0.00,,CLR,0.00,VWS V14.01,2013-11-20 02:26:00,
2013-11-19 18:31:00,56.9,41.8,29.86,SW,229,3.0,12.0,57,0.00,,CLR,0.00,VWS V14.01,2013-11-20 02:31:00,
2013-11-19 18:36:00,57.1,42.0,29.86,SW,229,2.0,12.0,57,0.00,,CLR,0.00,VWS V14.01,2013-11-20 02:36:00,
2013-11-19 18:41:00,57.1,42.5,29.86,SW,229,4.0,6.0,58,0.00,,CLR,0.00,VWS V14.01,2013-11-20 02:41:00,
2013-11-19 18:47:00,57.1,43.8,29.86,SW,232,4.0,6.0,61,0.00,,CLR,0.00,VWS V14.01,2013-11-20 02:47:00,
2013-11-19 18:52:00,56.9,43.6,29.86,SW,226,8.0,8.0,61,0.00,,CLR,0.00,VWS V14.01,2013-11-20 02:52:00,
2013-11-19 18:57:00,56.9,43.2,29.86,SW,226,2.0,8.0,60,0.00,,CLR,0.00,VWS V14.01,2013-11-20 02:57:00,
2013-11-19 19:02:00,56.8,43.1,29.86,SW,218,1.0,4.0,60,0.00,,CLR,0.00,VWS V14.01,2013-11-20 03:02:00,
2013-11-19 19:07:00,56.7,43.0,29.86,SW,218,0.0,4.0,60,0.00,,CLR,0.00,VWS V14.01,2013-11-20 03:07:00,
2013-11-19 19:12:00,56.5,42.4,29.86,SW,220,1.0,7.0,59,0.00,,CLR,0.00,VWS V14.01,2013-11-20 03:12:00,
2013-11-19 19:17:00,56.5,42.4,29.86,SW,220,0.0,7.0,59,0.00,,CLR,0.00,VWS V14.01,2013-11-20 03:17:00,
2013-11-19 19:22:00,56.5,42.8,29.86,SW,220,0.0,1.0,60,0.00,,CLR,0.00,VWS V14.01,2013-11-20 03:22:00,
2013-11-19 19:27:00,56.4,42.3,29.86,SW,220,0.0,1.0,59,0.00,,CLR,0.00,VWS V14.01,2013-11-20 03:27:00,
2013-11-19 19:32:00,56.2,42.1,29.86,SW,220,0.0,0.0,59,0.00,,CLR,0.00,VWS V14.01,2013-11-20 03:32:00,
2013-11-19 19:37:00,55.9,42.2,29.87,SW,220,0.0,0.0,60,0.00,,CLR,0.00,VWS V14.01,2013-11-20 03:37:00,
2013-11-19 19:42:00,55.7,42.0,29.87,SW,220,2.0,2.0,60,0.00,,CLR,0.00,VWS V14.01,2013-11-20 03:42:00,
2013-11-19 19:47:00,55.5,42.7,29.87,SW,220,0.0,4.0,62,0.00,,CLR,0.00,VWS V14.01,2013-11-20 03:47:00,
2013-11-19 19:52:00,55.4,42.6,29.87,SW,220,0.0,0.0,62,0.00,,CLR,0.00,VWS V14.01,2013-11-20 03:52:00,
2013-11-19 19:58:00,55.3,42.5,29.86,SW,220,0.0,0.0,62,0.00,,CLR,0.00,VWS V14.01,2013-11-20 03:58:00,
2013-11-19 20:03:00,55.1,42.3,29.87,SSW,211,0.0,2.0,62,0.00,,CLR,0.00,VWS V14.01,2013-11-20 04:03:00,
2013-11-19 20:08:00,55.0,42.2,29.87,SSW,210,0.0,2.0,62,0.00,,CLR,0.00,VWS V14.01,2013-11-20 04:08:00,
2013-11-19 20:13:00,55.0,42.2,29.88,SSW,210,0.0,0.0,62,0.00,,CLR,0.00,VWS V14.01,2013-11-20 04:13:00,
2013-11-19 20:18:00,54.9,42.1,29.88,SSW,210,2.0,2.0,62,0.00,,CLR,0.00,VWS V14.01,2013-11-20 04:18:00,
2013-11-19 20:23:00,54.8,42.0,29.87,SSW,210,0.0,0.0,62,0.00,,CLR,0.00,VWS V14.01,2013-11-20 04:23:00,
2013-11-19 20:28:00,54.8,42.0,29.88,SSW,210,0.0,2.0,62,0.00,,CLR,0.00,VWS V14.01,2013-11-20 04:28:00,
2013-11-19 20:33:00,54.8,42.0,29.88,SSW,196,2.0,4.0,62,0.00,,CLR,0.00,VWS V14.01,2013-11-20 04:33:00,
2013-11-19 20:39:00,54.8,42.0,29.87,SSW,194,0.0,4.0,62,0.00,,CLR,0.00,VWS V14.01,2013-11-20 04:39:00,
2013-11-19 20:44:00,54.8,42.0,29.88,SSW,194,0.0,0.0,62,0.00,,CLR,0.00,VWS V14.01,2013-11-20 04:44:00,
2013-11-19 20:49:00,54.7,42.0,29.88,SSW,194,0.0,0.0,62,0.00,,CLR,0.00,VWS V14.01,2013-11-20 04:49:00,
2013-11-19 20:54:00,54.6,41.9,29.88,SSW,194,0.0,0.0,62,0.00,,CLR,0.00,VWS V14.01,2013-11-20 04:54:00,
2013-11-19 20:59:00,54.5,41.8,29.88,SSW,194,0.0,0.0,62,0.00,,CLR,0.00,VWS V14.01,2013-11-20 04:59:00,
2013-11-19 21:01:00,54.5,41.8,29.88,SSW,194,0.0,0.0,62,0.00,,BKN110,0.00,VWS V14.01,2013-11-20 05:01:00,
2013-11-19 21:03:00,54.4,41.7,29.89,SSW,194,0.0,0.0,62,0.00,,BKN110,0.00,VWS V14.01,2013-11-20 05:03:00,
2013-11-19 21:05:00,54.4,42.1,29.89,SSW,195,3.0,4.0,63,0.00,,BKN110,0.00,VWS V14.01,2013-11-20 05:05:00,
2013-11-19 21:06:00,54.4,41.7,29.89,SSW,196,3.0,4.0,62,0.00,,BKN110,0.00,VWS V14.01,2013-11-20 05:06:00,
2013-11-19 21:07:00,54.3,41.6,29.89,SSW,196,1.0,4.0,62,0.00,,BKN110,0.00,VWS V14.01,2013-11-20 05:07:00,
2013-11-19 21:10:00,54.3,41.6,29.88,SSW,196,0.0,4.0,62,0.00,,BKN110,0.00,VWS V14.01,2013-11-20 05:10:00,
2013-11-19 21:15:00,54.3,41.6,29.88,SSW,196,0.0,2.0,62,0.00,,BKN110,0.00,VWS V14.01,2013-11-20 05:15:00,
2013-11-19 21:20:00,54.4,41.2,29.88,SSW,211,0.0,0.0,61,0.00,,BKN110,0.00,VWS V14.01,2013-11-20 05:20:00,
2013-11-19 21:25:00,54.7,42.4,29.88,SW,235,3.0,8.0,63,0.00,,BKN110,0.00,VWS V14.01,2013-11-20 05:25:00,
2013-11-19 21:30:00,55.1,41.5,29.88,SW,236,0.0,0.0,60,0.00,,BKN110,0.00,VWS V14.01,2013-11-20 05:30:00,
2013-11-19 21:35:00,55.2,41.6,29.87,SW,236,0.0,3.0,60,0.00,,BKN110,0.00,VWS V14.01,2013-11-20 05:35:00,
2013-11-19 21:40:00,55.3,41.7,29.87,SW,236,0.0,0.0,60,0.00,,BKN110,0.00,VWS V14.01,2013-11-20 05:40:00,
2013-11-19 21:45:00,55.3,41.2,29.87,SW,236,0.0,0.0,59,0.00,,BKN110,0.00,VWS V14.01,2013-11-20 05:45:00,
2013-11-19 21:51:00,55.4,40.0,29.87,SW,236,1.0,1.0,56,0.00,,BKN110,0.00,VWS V14.01,2013-11-20 05:51:00,
2013-11-19 21:56:00,55.5,39.1,29.87,SW,236,0.0,4.0,54,0.00,,BKN110,0.00,VWS V14.01,2013-11-20 05:56:00,
2013-11-19 22:01:00,55.8,39.4,29.87,SW,236,0.0,0.0,54,0.00,,CLR,0.00,VWS V14.01,2013-11-20 06:01:00,
2013-11-19 22:06:00,55.9,39.0,29.87,SW,232,4.0,4.0,53,0.00,,CLR,0.00,VWS V14.01,2013-11-20 06:06:00,
2013-11-19 22:11:00,56.0,40.1,29.87,SW,225,0.0,0.0,55,0.00,,CLR,0.00,VWS V14.01,2013-11-20 06:11:00,
2013-11-19 22:16:00,55.9,41.8,29.87,SW,227,2.0,7.0,59,0.00,,CLR,0.00,VWS V14.01,2013-11-20 06:16:00,
2013-11-19 22:21:00,55.8,42.6,29.86,South,177,6.0,7.0,61,0.00,,CLR,0.00,VWS V14.01,2013-11-20 06:21:00,
2013-11-19 22:26:00,55.5,43.5,29.86,SW,227,7.0,13.0,64,0.00,,CLR,0.00,VWS V14.01,2013-11-20 06:26:00,
2013-11-19 22:31:00,55.3,42.9,29.86,WSW,250,5.0,10.0,63,0.00,,CLR,0.00,VWS V14.01,2013-11-20 06:31:00,
2013-11-19 22:36:00,55.2,43.7,29.86,SW,225,2.0,12.0,65,0.00,,CLR,0.00,VWS V14.01,2013-11-20 06:36:00,
2013-11-19 22:41:00,55.0,43.5,29.85,SW,227,6.0,10.0,65,0.00,,CLR,0.00,VWS V14.01,2013-11-20 06:41:00,
2013-11-19 22:47:00,54.9,43.0,29.86,SW,234,4.0,10.0,64,0.00,,CLR,0.00,VWS V14.01,2013-11-20 06:47:00,
2013-11-19 22:52:00,54.8,42.0,29.86,SW,236,10.0,10.0,62,0.00,,CLR,0.00,VWS V14.01,2013-11-20 06:52:00,
2013-11-19 22:57:00,55.0,43.1,29.86,SW,225,0.0,11.0,64,0.00,,CLR,0.00,VWS V14.01,2013-11-20 06:57:00,
2013-11-19 23:02:00,55.0,41.4,29.86,SW,225,4.0,5.0,60,0.00,,CLR,0.00,VWS V14.01,2013-11-20 07:02:00,
2013-11-19 23:07:00,55.3,42.5,29.85,SW,234,4.0,10.0,62,0.00,,CLR,0.00,VWS V14.01,2013-11-20 07:07:00,
2013-11-19 23:12:00,55.5,41.9,29.86,WSW,241,2.0,14.0,60,0.00,,CLR,0.00,VWS V14.01,2013-11-20 07:12:00,
2013-11-19 23:17:00,55.5,42.3,29.86,SW,230,4.0,14.0,61,0.00,,CLR,0.00,VWS V14.01,2013-11-20 07:17:00,
2013-11-19 23:22:00,55.4,42.6,29.86,SW,227,4.0,12.0,62,0.00,,CLR,0.00,VWS V14.01,2013-11-20 07:22:00,
2013-11-19 23:27:00,55.2,42.4,29.86,SW,220,2.0,12.0,62,0.00,,CLR,0.00,VWS V14.01,2013-11-20 07:27:00,
2013-11-19 23:32:00,55.0,43.1,29.86,SW,221,7.0,12.0,64,0.00,,CLR,0.00,VWS V14.01,2013-11-20 07:32:00,
2013-11-19 23:37:00,54.9,43.0,29.85,SW,221,6.0,13.0,64,0.00,,CLR,0.00,VWS V14.01,2013-11-20 07:37:00,
2013-11-19 23:42:00,54.7,42.8,29.85,SW,219,4.0,10.0,64,0.00,,CLR,0.00,VWS V14.01,2013-11-20 07:42:00,
2013-11-19 23:47:00,54.6,42.7,29.85,SW,228,3.0,10.0,64,0.00,,CLR,0.00,VWS V14.01,2013-11-20 07:47:00,
2013-11-19 23:52:00,54.6,42.3,29.85,WSW,240,13.0,13.0,63,0.00,,CLR,0.00,VWS V14.01,2013-11-20 07:52:00,
2013-11-19 23:57:00,54.5,41.8,29.85,SW,221,1.0,13.0,62,0.00,,CLR,0.00,VWS V14.01,2013-11-20 07:57:00,